    Kowalski, S. M. Larson, F. C. Shelly.  0.68 m Schmidt + CCD.
(718) Tooele (N40.6415 W112.2958)  US/Utah.   Observer P. Wiggins.  0.35-m
    f/5.5 Schmidt-Cassegrain + CCD.
(900) Moriyama (N35.04980 E135.98994)  Japan.
(958) Observatoire de Dax (N43.69337 W1.03039)  France.
(970) Chelmsford (N51.7448 E0.4954)  UK.   Observer N. James.  0.28-m f/10
    Schmidt-Cassegrain + CCD.
(B20) Observatorio Carmelita, Tiana (N41.4845 E2.2636)  Spain.
(C23) Olmen (N51.14049 E5.15439)  Belgium.
(C47) Nonndorf (N48.7869 E15.2356)  Austria.
(H01) Magdalena Ridge Observatory, Socorro (N33.9853 W107.1892)  US/New Mexico.
      Observers W. H. Ryan, E. V. Ryan.  Measurer W. H. Ryan.  2.4-m f/8.9
    reflector + CCD.
(H21) Astronomical Research Observatory, Westfield (N39.48311 W87.96827)  US/Illinois.
(H36) Sandlot Observatory, Scranton (N38.7977 W95.7064)  US/Kansas.   Observer
    G. Hug.  0.56-m reflector + CCD.
(I57) Elche (N38.3016 W0.6744)  Spain.
(I93) St Pardon de Conques (N44.55876 W0.20300)  France.
(J69) North Observatory, Clanfield (N50.9391 W1.0197)  UK.
(J95) Great Shefford (N51.47502 W1.44700)  UK.   Observer P. Birtwhistle.
    0.30-m f/6.3 Schmidt-Cassegrain + CCD.
(K38) M57 Observatory, Saltrio (N45.5224 E8.5511)  Italy.
(K51) Osservatorio del Celado, Castello Tesino (N46.0295 E11.6579)  Italy.
(O75) ISON-Hureltogoot Observatory (N47.86533 E107.05180).

Orbital elements:  VG3AFFC
   Perihelion 2014 May 31.717361 +/- 0.252 TT = 17:13:00 (JD 2456809.217361)
Epoch 2014 Apr 11.0 TT = JDT 2456758.5   Earth MOID: 0.0233   Find_Orb
M 335.30293 +/- 0.51
n   0.48695480 +/- 0.00761          Peri.  213.21809 +/- 0.23
a   1.60008706 +/- 0.0167           Node    37.73822 +/- 0.048
e   0.4154050 +/- 0.00607           Incl.   39.63470 +/- 0.22
P   2.02/739.27d           H 18.4   G  0.15   U  9.5
q 0.93540285 +/- 0.000149    Q 2.26477126 +/- 0.032
110 of 116 observations 2014 Apr. 8-11; mean residual 0".552.

Residuals in arcseconds:
140408 703 .251- .410+    140408 J69 .061- .257+    140409 151 .334+ .821-
140408 703 .842- .066-    140408 C23 .111+ .182+    140409 K51 .038- .168-
140408 703 .661- .100+    140408 C23 .288- .225-    140409 K51 .360+ .314-
140408 H01 .573- .461+    140408 J69 .212- .918+    140409 K51 .232+ .277-
140408 H01 .502- .312+    140408 C23 .141+ .572-    140409 K51 .308+ .440-
140408 H01 .414- .307+    140408 J69 .308+ .228+    140409 C23(4.24+ 3.42-)
140408 H01 .465- .213+    140408 970 .097+ .110-    140409 B20 1.51- 1.34+
140408 703 .382- .446+    140408 970 .199+ .170-    140409 K38 .035+ .182-
140408 703 .889- .012-    140409 H01 .190+ .441-    140409 B20 1.17- 1.20+
140408 703 .233- .116+    140409 H01 .199+ .378-    140409 C23(3.12+ 4.31-)
140408 703 .533- 1.06+    140409 H01 .224+ .269-    140409 B20 .761- 1.53+
140408 300 .636+ .509+    140409 H01 .056+ .431-    140409 K38 .134- .255-
140408 300 .386+ .174+    140409 H21 .518+ .277-    140409 970 .201+ .103-
140408 300 .328- .639+    140409 H21 .449+ .310-    140409 970 .058+ .291-
140408 300 .492+ .923+    140409 H21 .448+ .343-    140409 970 .385+ .286-
140408 300 .250+ 1.09+    140409 H36 .102+ .190-    140409 K38 .120- .160-
140408 O75 .526- 1.03-    140409 H36 .052- .301-    140410 K38 .024+ .217-
140408 O75 .395- 1.35-    140409 703 .278+ .390+    140410 I93 .193- .120-
140408 O75(2.32- .046-)   140409 703 .843+ 1.40-    140410 I93 .253- .072-
140408 970 .355- .063-    140409 703 .015+ .187-    140410 I93 .069- .047+
140408 970 .304- .372-    140409 703 .206- 1.52-    140410 900 .638- .402+
140408 970 .090+ .141-    140409 300 .524+ .867-    140410 900(1.97- .686+)
140408 J95 .296+ .234-    140409 300 .925+ .442-    140410 900 .123- .447+
140408 970 .021+ .413-    140409 300 .195+ .572-    140410 K38 1.11- .489+
140408 J95 .507+ .121-    140409 300 .386+ .732-    140410 K38 1.01- .523+
140408 J95 .071+ .338-    140409 300 1.00+ .701-    140410 K38 .354- 1.45+
140408 970 .060- .044-    140409 461 .429+ .218+    140411 718 1.50- .278+
140408 970 .001- .060-    140409 461 .146+ .148-    140411 718 1.09- .682+
140408 958 .690- .196+    140409 461 .494+ .195-    140411 718 0.99- 1.23+
140408 I57 .426+ .275-    140409 461 .540+ .242-    140411 C47(3.99- 2.48+)
140408 958 .372- .023+    140409 461 .209+ .108-    140411 C47(4.03- 2.44+)
140408 J69 .087+ 1.32+    140409 461 .183+ .263+    140411 C23 .613+ .573-
140408 I57 1.06+ .332+    140409 461 .307+ .097+    140411 C23 .254+ .675-
140408 958 .489- .136+    140409 461 .282+ .232-    140411 C23 .847+ .668-
140408 I57 .653+ .719+    140409 461 .659+ .102+    140411 C23 1.03+ .040-
140408 J69 .203- .473+    140409 461 .044- .255+    140411 C23 .095- .257+
140408 J69 .777- .215+    140409 461 .314+ .059+    140411 C23 1.59+ .508-
140408 C23 .264+ .698-    140409 151 .210+ .446-    140411 C23 .211+ .487-
140408 C23 .005+ .409-    140409 151 .217+ .358+

Ephemerides (251):
Assumes power=900.00 kW, Tsys=25.0 deg K, gain 10.00
Assumed rotation period = 3.00 hours, diameter 862.8 meters
Date (UT)  HH   RA              Dec         delta   r     elong SM  mag alt  az  SNR " sig PA
---- -- -- --  ------------   ------------  ------ ------ ----- --  --- --- --- ---- ---- ---
2014 05 02 22  08 23 49.603   +34 07 46.27  .11920 0.9906  78.3 *m 17.2 +74 007  117   62 112
2014 05 02 23  08 23 22.309   +33 53 08.33  .11913 0.9905  78.2 Cm 17.2 +71 326  118   62 112
................
2014 05 03 21  08 14 25.426   +28 27 36.46  .11839 .98720  76.5 *m 17.3 +74 049  121   68 114
2014 05 03 22  08 14 00.742   +28 12 42.37  .11838 .98705  76.4 *m 17.3 +80 354  121   68 114
2014 05 03 23  08 13 36.174   +27 57 45.66  .11838 .98691  76.3 Cm 17.3 +72 305  121   69 114
................
2014 05 04 21  08 05 33.248   +22 29 32.70  .11891 .98371  74.7 *m 17.3 +79 066  119   74 116
2014 05 04 22  08 05 10.921   +22 14 41.71  .11896 .98357  74.6 *m 17.3 +84 314  118   74 116
2014 05 04 23  08 04 48.715   +21 59 49.55  .11902 .98342  74.5 Cm 17.3 +71 284  118   74 116
................
2014 05 05 21  07 57 32.347   +16 37 12.79  .12082 .98032  73.1 *m 17.4 +82 102  111   78 117
2014 05 05 22  07 57 12.062   +16 22 46.86  .12093 .98019  73.0 *m 17.4 +83 255  111   78 117
................
2014 05 06 21  07 50 15.735   +10 58 37.49  .12404 .97705  71.7 *m 17.6 +81 147  100   81 117
2014 05 06 22  07 49 57.223   +10 44 54.62  .12420 .97691  71.6 *m 17.6 +77 234 99.6   81 117
................
2014 05 07 21  07 43 37.443   +05 39 53.64  .12848 .97388  70.5 *M 17.7 +77 170 87.0   83 117
2014 05 07 22  07 43 20.472   +05 27 06.41  .12869 .97375  70.5 *M 17.7 +72 226 86.4   83 117
................
2014 05 08 21  07 37 32.389   +00 44 54.03  .13401 .97082  69.6 *M 17.8 +72 181 73.5   84 117